SL-16 DEB, 43369

Orbit data source: Space-Track

SL-16 DEB, 43369 is space debris in SSO originally from a launch on Mon, 10 Dec 2001 UTC launched from the Tyuratam Missile And Space Complex (TTMTR). Debris objects in space refer to the collection of defunct objects orbiting the Earth. Examples of debris include non-operational satellites, rocket bodies, and fragments generated from explosions, collisions, or faulty payload assembly.

Loading next visibility...
SL-16 DEB details
Identifier
43369, 2001-056N
Orbit
SSO
Last TLE update5 months ago
Origin
Flag of CISKVR (CIS)
ManufacturerUnknown
MissionSpacecraft
Bus & MotorUnknown
MassUnknown
Launch date (UTC)
2001-12-10 (23 years ago)
Launch vehicleUnknown
Launch site
Tyuratam Missile And Space Complex (TTMTR)
Object type
Payload
Rocket body
Debris
Shape & HBRUnknown
Radar Cross SectionSmall (<0.1 m²)

Expand to show TLE details & history

TLE from 5 months ago
0 SL-16 DEB
1 43369U 01056N   24205.35363231  .00009507  00000-0  40251-2 0  9991
2 43369  99.3226  52.6224 0082539 151.4412  24.2737 14.23840765531873
Epoch: 2024-07-23T08:29Z
Definitive object data (Epoch: 2024-07-23T08:29:13.831Z)
Latitude3.74783°
Longitude164.35437°
Altitude760.854 km
Speed7.502 km/s
True Right ascension15h 32m 56s
True Declination3° 43' 32"
Sunlit
Object was in daylight at TLE epoch
Visualization TLE readout
Latitude35.36682°
Longitude-23.57502°
Altitude793.385 km
Speed7.467 km/s
Apparent Right ascension03h 16m 15s
Apparent Declination0° 19' 04"
Sunlit
Object is in daylight
Visualization observer readout
Local Sidereal Time15:34:13
Azimuth6.933° NNE
Elevation-49.558°
Doppler factor1
Orbital elements
Apogee altitude868.903 km
Perigee altitude750.25 km
Semi-major axis7,187.713 km
Eccentricity0.0082539
Inclination99.3226°
RAAN52.6224°
Arg. of periapsis151.4412°
True anomaly24.66621°
Mean anomaly24.2737°
Eccentric anomaly24.46959°
Mean motion3.5617 °/min
BSTAR0.0040251
Orbital period101.08 mins
Loading maneuver chart data...
Loading historical data...
Loading historical data...
Loading historical data...
Loading historical data...
Loading historical data...
Loading historical data...
Loading historical data...

SL-16 DEB Visibility forecast

Observer location: undefined°, undefined

Span
Click to sort rows by Start time (UTC) header in descending order
Start Az.
Max El. time (UTC)
Max El. Az.
Max El.
End time (UTC)
End Az.
4 mins2024-12-27 02:15:05.108Z65.299° ENE2024-12-27 02:17:05.108Z89.019° E13.116°2024-12-27 02:19:05.108Z113.455° SE
8 mins2024-12-27 03:54:05.108Z5.168° NNE2024-12-27 03:57:05.108Z310.378° NW42.538°2024-12-27 04:02:05.108Z205.944° SW
5 mins2024-12-27 13:35:05.108Z98.14° ESE2024-12-27 13:37:05.108Z66.518° ENE20.949°2024-12-27 13:40:05.108Z22.024° NNE
8 mins2024-12-27 15:13:05.108Z197.065° SSW2024-12-27 15:17:05.108Z275.498° WNW32.227°2024-12-27 15:21:05.108Z329.563° NNW
|